Location: Les Gen�tes
(46.3104°N, 1.5969°E)
Time: 02:56:25
(UTC+00:00)

Cosmos 1174 - Pass Details

Date: 01 June 2020
Orbit: 367 x 1151 km, 66.1° (Epoch: 11 July)

Event Time Altitude Azimuth Distance (km) Brightness Sun altitude
Exits shadow 23:06:46 68° 64° (ENE) 475 3.4 -20.7°
Drops below altitude 10° 23:10:06 10° 36° (NE) 1,693 6.9 -20.8°
Sets 23:12:30 0° 36° (NE) 2,704 8.0 -20.9°
